Time,TemperatureF,DewpointF,PressureIn,WindDirection,WindDirectionDegrees,WindSpeedMPH,WindSpeedGustMPH,Humidity,HourlyPrecipIn,Conditions,Clouds,dailyrainin,SoftwareType,DateUTC
2013-03-03 00:00:00,23.5,16.2,29.98,NNE,25,4.0,16.0,73,0.00,,,0.00,meteohub,2013-03-03 05:00:00,
2013-03-03 00:05:00,23.5,16.2,29.98,NNE,18,4.0,13.0,73,0.00,,,0.00,meteohub,2013-03-03 05:05:00,
2013-03-03 00:10:00,23.4,16.0,29.98,NNE,27,6.0,12.0,73,0.00,,,0.00,meteohub,2013-03-03 05:10:00,
2013-03-03 00:15:00,23.4,16.3,29.98,NNE,23,5.0,11.0,74,0.00,,,0.00,meteohub,2013-03-03 05:15:00,
2013-03-03 00:20:00,23.2,16.2,29.98,NNE,25,6.0,10.0,74,0.00,,,0.00,meteohub,2013-03-03 05:20:00,
2013-03-03 00:25:00,23.2,16.2,29.98,NE,36,7.0,11.0,74,0.00,,,0.00,meteohub,2013-03-03 05:25:00,
2013-03-03 00:30:00,23.2,16.2,29.98,NE,43,8.0,11.0,74,0.00,,,0.00,meteohub,2013-03-03 05:30:00,
2013-03-03 00:35:00,23.2,15.8,29.98,NNE,16,2.0,11.0,73,0.00,,,0.00,meteohub,2013-03-03 05:35:00,
2013-03-03 00:40:00,23.2,15.8,29.98,NE,43,6.0,10.0,73,0.00,,,0.00,meteohub,2013-03-03 05:40:00,
2013-03-03 00:45:00,22.8,15.4,29.98,NNE,23,1.0,10.0,73,0.00,,,0.00,meteohub,2013-03-03 05:45:00,
2013-03-03 00:50:00,22.8,15.4,29.98,NE,55,0.0,8.0,73,0.00,,,0.00,meteohub,2013-03-03 05:50:00,
2013-03-03 00:55:00,22.8,15.4,29.97,NE,36,4.0,7.0,73,0.00,,,0.00,meteohub,2013-03-03 05:55:00,
2013-03-03 01:00:00,22.6,15.6,29.97,NNE,25,5.0,6.0,74,0.00,,,0.00,meteohub,2013-03-03 06:00:00,
2013-03-03 01:05:00,22.5,15.4,29.97,ENE,73,1.0,8.0,74,0.00,,,0.00,meteohub,2013-03-03 06:05:00,
2013-03-03 01:10:00,22.3,15.6,29.97,ENE,59,3.0,8.0,75,0.00,,,0.00,meteohub,2013-03-03 06:10:00,
2013-03-03 01:15:00,22.3,15.6,29.97,NNE,27,5.0,8.0,75,0.00,,,0.00,meteohub,2013-03-03 06:15:00,
2013-03-03 01:20:00,22.3,15.3,29.98,NE,56,2.0,8.0,74,0.00,,,0.00,meteohub,2013-03-03 06:20:00,
2013-03-03 01:25:00,22.3,15.6,29.98,NE,43,4.0,8.0,75,0.00,,,0.00,meteohub,2013-03-03 06:25:00,
2013-03-03 01:30:00,22.3,15.6,29.98,NNE,21,1.0,7.0,75,0.00,,,0.00,meteohub,2013-03-03 06:30:00,
2013-03-03 01:36:00,21.9,15.3,29.98,ENE,63,1.0,6.0,75,0.00,,,0.00,meteohub,2013-03-03 06:36:00,
2013-03-03 01:41:00,21.7,15.3,29.98,NE,50,1.0,5.0,76,0.00,,,0.00,meteohub,2013-03-03 06:41:00,
2013-03-03 01:46:00,21.6,15.3,29.98,NNE,30,1.0,5.0,76,0.00,,,0.00,meteohub,2013-03-03 06:46:00,
2013-03-03 01:51:00,21.6,15.4,29.98,ENE,60,0.0,3.0,77,0.00,,,0.00,meteohub,2013-03-03 06:51:00,
2013-03-03 01:56:00,21.6,15.3,29.98,ENE,60,0.0,3.0,76,0.00,,,0.00,meteohub,2013-03-03 06:56:00,
2013-03-03 02:01:00,21.4,15.3,29.98,NE,38,0.0,3.0,77,0.00,,,0.00,meteohub,2013-03-03 07:01:00,
2013-03-03 02:06:00,21.2,15.4,29.98,NE,38,2.0,3.0,78,0.00,,,0.00,meteohub,2013-03-03 07:06:00,
2013-03-03 02:11:00,21.0,15.3,29.98,NNE,20,1.0,2.0,78,0.00,,,0.00,meteohub,2013-03-03 07:11:00,
2013-03-03 02:16:00,21.4,15.3,29.98,NNE,23,1.0,8.0,77,0.00,,,0.00,meteohub,2013-03-03 07:16:00,
2013-03-03 02:21:00,21.4,15.3,29.97,North,357,1.0,8.0,77,0.00,,,0.00,meteohub,2013-03-03 07:21:00,
2013-03-03 02:26:00,21.4,15.6,29.97,NNE,26,3.0,7.0,78,0.00,,,0.00,meteohub,2013-03-03 07:26:00,
2013-03-03 02:31:00,21.4,15.3,29.97,NNE,32,0.0,7.0,77,0.00,,,0.00,meteohub,2013-03-03 07:31:00,
2013-03-03 02:36:00,21.4,15.3,29.97,North,9,1.0,5.0,77,0.00,,,0.00,meteohub,2013-03-03 07:36:00,
2013-03-03 02:41:00,21.6,15.4,29.97,NNE,30,2.0,4.0,77,0.00,,,0.00,meteohub,2013-03-03 07:41:00,
2013-03-03 02:46:00,21.6,15.4,29.97,NNE,23,1.0,6.0,77,0.00,,,0.00,meteohub,2013-03-03 07:46:00,
2013-03-03 02:51:00,21.6,15.4,29.97,NNE,32,2.0,6.0,77,0.00,,,0.00,meteohub,2013-03-03 07:51:00,
2013-03-03 02:56:00,21.4,15.3,29.97,ENE,68,3.0,7.0,77,0.00,,,0.00,meteohub,2013-03-03 07:56:00,
2013-03-03 03:01:00,21.4,15.6,29.97,NNE,27,2.0,7.0,78,0.00,,,0.00,meteohub,2013-03-03 08:01:00,
2013-03-03 03:06:00,21.4,15.6,29.97,NE,40,6.0,7.0,78,0.00,,,0.00,meteohub,2013-03-03 08:06:00,
2013-03-03 03:11:00,21.2,15.4,29.97,NE,38,1.0,7.0,78,0.00,,,0.00,meteohub,2013-03-03 08:11:00,
2013-03-03 03:16:00,21.0,15.6,29.97,NE,36,2.0,7.0,79,0.00,,,0.00,meteohub,2013-03-03 08:16:00,
2013-03-03 03:21:00,21.0,15.6,29.97,NE,38,2.0,7.0,79,0.00,,,0.00,meteohub,2013-03-03 08:21:00,
2013-03-03 03:26:00,21.0,15.6,29.97,NE,36,2.0,6.0,79,0.00,,,0.00,meteohub,2013-03-03 08:26:00,
2013-03-03 03:31:00,20.8,15.4,29.97,NNE,23,4.0,6.0,79,0.00,,,0.00,meteohub,2013-03-03 08:31:00,
2013-03-03 03:36:00,20.8,15.4,29.97,NNE,33,1.0,8.0,79,0.00,,,0.00,meteohub,2013-03-03 08:36:00,
2013-03-03 03:42:00,20.8,15.4,29.97,NE,36,2.0,8.0,79,0.00,,,0.00,meteohub,2013-03-03 08:42:00,
2013-03-03 03:47:00,20.8,15.4,29.97,ENE,61,3.0,8.0,79,0.00,,,0.00,meteohub,2013-03-03 08:47:00,
2013-03-03 03:52:00,20.7,15.3,29.97,ENE,58,4.0,6.0,79,0.00,,,0.00,meteohub,2013-03-03 08:52:00,
2013-03-03 03:57:00,20.7,15.3,29.96,NNE,20,4.0,7.0,79,0.00,,,0.00,meteohub,2013-03-03 08:57:00,
2013-03-03 04:02:00,20.7,15.3,29.96,NNE,12,3.0,7.0,79,0.00,,,0.00,meteohub,2013-03-03 09:02:00,
2013-03-03 04:07:00,20.7,15.3,29.97,NNW,339,1.0,7.0,79,0.00,,,0.00,meteohub,2013-03-03 09:07:00,
2013-03-03 04:12:00,20.5,15.1,29.97,NE,49,6.0,6.0,79,0.00,,,0.00,meteohub,2013-03-03 09:12:00,
2013-03-03 04:17:00,20.5,15.1,29.97,ENE,58,7.0,9.0,79,0.00,,,0.00,meteohub,2013-03-03 09:17:00,
2013-03-03 04:22:00,20.5,15.1,29.97,NE,38,3.0,9.0,79,0.00,,,0.00,meteohub,2013-03-03 09:22:00,
2013-03-03 04:27:00,20.5,15.1,29.97,NE,38,2.0,9.0,79,0.00,,,0.00,meteohub,2013-03-03 09:27:00,
2013-03-03 04:32:00,20.5,14.7,29.97,NE,47,6.0,10.0,78,0.00,,,0.00,meteohub,2013-03-03 09:32:00,
2013-03-03 04:37:00,20.7,14.9,29.97,NE,43,8.0,10.0,78,0.00,,,0.00,meteohub,2013-03-03 09:37:00,
2013-03-03 04:42:00,20.7,14.5,29.97,NNE,32,5.0,10.0,77,0.00,,,0.00,meteohub,2013-03-03 09:42:00,
2013-03-03 04:47:00,20.7,14.5,29.97,NE,56,3.0,9.0,77,0.00,,,0.00,meteohub,2013-03-03 09:47:00,
2013-03-03 04:52:00,20.5,14.4,29.97,NNE,32,4.0,8.0,77,0.00,,,0.00,meteohub,2013-03-03 09:52:00,
2013-03-03 04:57:00,20.5,14.4,29.97,NNE,21,1.0,9.0,77,0.00,,,0.00,meteohub,2013-03-03 09:57:00,
2013-03-03 05:02:00,20.1,14.0,29.97,NNE,30,1.0,9.0,77,0.00,,,0.00,meteohub,2013-03-03 10:02:00,
2013-03-03 05:07:00,20.1,14.0,29.98,NNE,15,4.0,5.0,77,0.00,,,0.00,meteohub,2013-03-03 10:07:00,
2013-03-03 05:12:00,20.1,14.0,29.97,NE,43,1.0,7.0,77,0.00,,,0.00,meteohub,2013-03-03 10:12:00,
2013-03-03 05:17:00,20.1,14.0,29.97,NNE,23,3.0,7.0,77,0.00,,,0.00,meteohub,2013-03-03 10:17:00,
2013-03-03 05:22:00,19.9,13.6,29.98,NE,41,3.0,7.0,76,0.00,,,0.00,meteohub,2013-03-03 10:22:00,
2013-03-03 05:27:00,19.9,13.8,29.98,NNE,22,2.0,8.0,77,0.00,,,0.00,meteohub,2013-03-03 10:27:00,
2013-03-03 05:32:00,19.9,13.8,29.98,North,8,4.0,8.0,77,0.00,,,0.00,meteohub,2013-03-03 10:32:00,
2013-03-03 05:37:00,19.8,13.6,29.98,NE,39,5.0,8.0,77,0.00,,,0.00,meteohub,2013-03-03 10:37:00,
2013-03-03 05:42:00,19.8,13.6,29.98,NNE,32,6.0,8.0,77,0.00,,,0.00,meteohub,2013-03-03 10:42:00,
2013-03-03 05:47:00,19.9,13.6,29.98,NNE,22,4.0,12.0,76,0.00,,,0.00,meteohub,2013-03-03 10:47:00,
2013-03-03 05:52:00,19.9,13.6,29.98,NNE,23,3.0,12.0,76,0.00,,,0.00,meteohub,2013-03-03 10:52:00,
2013-03-03 05:57:00,19.9,13.6,29.98,ENE,63,3.0,12.0,76,0.00,,,0.00,meteohub,2013-03-03 10:57:00,
2013-03-03 06:02:00,19.9,13.3,29.98,ENE,57,3.0,11.0,75,0.00,,,0.00,meteohub,2013-03-03 11:02:00,
2013-03-03 06:07:00,19.8,13.1,29.98,NNE,13,7.0,8.0,75,0.00,,,0.00,meteohub,2013-03-03 11:07:00,
2013-03-03 06:12:00,19.8,13.5,29.98,NNE,21,6.0,8.0,76,0.00,,,0.00,meteohub,2013-03-03 11:12:00,
2013-03-03 06:17:00,19.8,13.5,29.99,NE,36,3.0,8.0,76,0.00,,,0.00,meteohub,2013-03-03 11:17:00,
2013-03-03 06:22:00,19.8,13.5,29.99,NE,46,3.0,8.0,76,0.00,,,0.00,meteohub,2013-03-03 11:22:00,
2013-03-03 06:27:00,19.6,13.3,29.99,NE,44,5.0,8.0,76,0.00,,,0.00,meteohub,2013-03-03 11:27:00,
2013-03-03 06:32:00,19.4,13.1,29.99,NE,52,2.0,7.0,76,0.00,,,0.00,meteohub,2013-03-03 11:32:00,
2013-03-03 06:37:00,19.2,13.5,29.99,ENE,63,3.0,7.0,78,0.00,,,0.00,meteohub,2013-03-03 11:37:00,
2013-03-03 06:42:00,19.0,13.6,29.99,NE,43,2.0,5.0,79,0.00,,,0.00,meteohub,2013-03-03 11:42:00,
2013-03-03 06:47:00,19.0,13.6,29.99,NE,56,4.0,5.0,79,0.00,,,0.00,meteohub,2013-03-03 11:47:00,
2013-03-03 06:52:00,18.9,13.6,29.99,NE,56,4.0,5.0,80,0.00,,,0.00,meteohub,2013-03-03 11:52:00,
2013-03-03 06:57:00,18.7,13.5,29.99,NE,41,2.0,6.0,80,0.00,,,0.00,meteohub,2013-03-03 11:57:00,
2013-03-03 07:02:00,18.7,13.5,29.99,ENE,58,2.0,6.0,80,0.00,,,0.00,meteohub,2013-03-03 12:02:00,
2013-03-03 07:07:00,18.7,13.8,30.00,NE,52,3.0,6.0,81,0.00,,,0.00,meteohub,2013-03-03 12:07:00,
2013-03-03 07:12:00,18.7,13.8,30.00,NNE,32,3.0,6.0,81,0.00,,,0.00,meteohub,2013-03-03 12:12:00,
2013-03-03 07:17:00,18.7,13.5,30.00,NE,40,4.0,6.0,80,0.00,,,0.00,meteohub,2013-03-03 12:17:00,
2013-03-03 07:22:00,18.7,13.5,29.99,ENE,58,4.0,6.0,80,0.00,,,0.00,meteohub,2013-03-03 12:22:00,
2013-03-03 07:27:00,18.9,13.6,29.99,NNE,26,2.0,6.0,80,0.00,,,0.00,meteohub,2013-03-03 12:27:00,
2013-03-03 07:32:00,18.9,14.0,30.00,NE,51,2.0,6.0,81,0.00,,,0.00,meteohub,2013-03-03 12:32:00,
2013-03-03 07:37:00,18.9,14.0,30.00,NNE,29,3.0,6.0,81,0.00,,,0.00,meteohub,2013-03-03 12:37:00,
2013-03-03 07:42:00,19.0,14.2,30.00,NNE,33,2.0,6.0,81,0.00,,,0.00,meteohub,2013-03-03 12:42:00,
2013-03-03 07:47:00,19.0,13.8,30.01,NE,51,0.0,6.0,80,0.00,,,0.00,meteohub,2013-03-03 12:47:00,
2013-03-03 07:52:00,19.2,14.0,30.01,NE,38,5.0,6.0,80,0.00,,,0.00,meteohub,2013-03-03 12:52:00,
2013-03-03 07:57:00,19.6,14.4,30.01,NE,56,2.0,7.0,80,0.00,,,0.00,meteohub,2013-03-03 12:57:00,
2013-03-03 08:02:00,19.8,14.0,30.01,ENE,68,4.0,7.0,78,0.00,,,0.00,meteohub,2013-03-03 13:02:00,
2013-03-03 08:07:00,19.9,14.2,30.01,NE,44,7.0,9.0,78,0.00,,,0.00,meteohub,2013-03-03 13:07:00,
2013-03-03 08:12:00,20.3,14.2,30.01,NE,51,7.0,10.0,77,0.00,,,0.00,meteohub,2013-03-03 13:12:00,
2013-03-03 08:17:00,20.5,14.2,30.01,ENE,74,7.0,10.0,76,0.00,,,0.00,meteohub,2013-03-03 13:17:00,
2013-03-03 08:22:00,20.7,14.4,30.01,NE,45,7.0,10.0,76,0.00,,,0.00,meteohub,2013-03-03 13:22:00,
2013-03-03 08:27:00,21.0,14.7,30.01,East,82,6.0,10.0,76,0.00,,,0.00,meteohub,2013-03-03 13:27:00,
2013-03-03 08:32:00,21.2,14.2,30.02,NE,36,7.0,10.0,74,0.00,,,0.00,meteohub,2013-03-03 13:32:00,
2013-03-03 08:37:00,21.4,14.0,30.02,North,359,4.0,13.0,73,0.00,,,0.00,meteohub,2013-03-03 13:37:00,
2013-03-03 08:42:00,21.6,14.2,30.02,NNE,33,4.0,13.0,73,0.00,,,0.00,meteohub,2013-03-03 13:42:00,
2013-03-03 08:47:00,21.6,14.2,30.02,ENE,63,5.0,14.0,73,0.00,,,0.00,meteohub,2013-03-03 13:47:00,
2013-03-03 08:52:00,21.9,14.5,30.02,NNW,343,2.0,14.0,73,0.00,,,0.00,meteohub,2013-03-03 13:52:00,
2013-03-03 08:57:00,22.3,14.7,30.02,NE,39,4.0,14.0,72,0.00,,,0.00,meteohub,2013-03-03 13:57:00,
2013-03-03 09:02:00,22.5,14.5,30.02,ENE,65,5.0,11.0,71,0.00,,,0.00,meteohub,2013-03-03 14:02:00,
2013-03-03 09:07:00,22.5,13.8,30.02,ENE,68,7.0,12.0,69,0.00,,,0.00,meteohub,2013-03-03 14:07:00,
2013-03-03 09:12:00,22.6,14.0,30.02,ENE,75,4.0,12.0,69,0.00,,,0.00,meteohub,2013-03-03 14:12:00,
2013-03-03 09:17:00,23.0,14.0,30.02,NNE,19,5.0,12.0,68,0.00,,,0.00,meteohub,2013-03-03 14:17:00,
2013-03-03 09:22:00,23.2,13.5,30.02,NE,36,8.0,11.0,66,0.00,,,0.00,meteohub,2013-03-03 14:22:00,
2013-03-03 09:27:00,23.0,12.9,30.02,NW,314,3.0,11.0,65,0.00,,,0.00,meteohub,2013-03-03 14:27:00,
2013-03-03 09:32:00,23.2,13.1,30.03,NE,38,9.0,12.0,65,0.00,,,0.00,meteohub,2013-03-03 14:32:00,
2013-03-03 09:37:00,23.4,13.3,30.02,NNW,335,1.0,12.0,65,0.00,,,0.00,meteohub,2013-03-03 14:37:00,
2013-03-03 09:42:00,24.1,14.4,30.02,East,82,5.0,12.0,66,0.00,,,0.00,meteohub,2013-03-03 14:42:00,
2013-03-03 09:47:00,24.3,13.5,30.02,NE,56,4.0,12.0,63,0.00,,,0.00,meteohub,2013-03-03 14:47:00,
2013-03-03 09:52:00,24.4,13.6,30.02,NE,41,11.0,12.0,63,0.00,,,0.00,meteohub,2013-03-03 14:52:00,
2013-03-03 09:57:00,24.4,13.3,30.02,North,4,5.0,12.0,62,0.00,,,0.00,meteohub,2013-03-03 14:57:00,
2013-03-03 10:02:00,24.6,13.5,30.02,NE,51,3.0,11.0,62,0.00,,,0.00,meteohub,2013-03-03 15:02:00,
2013-03-03 10:07:00,24.6,13.5,30.02,NNW,327,3.0,11.0,62,0.00,,,0.00,meteohub,2013-03-03 15:07:00,
2013-03-03 10:12:00,24.8,13.6,30.02,NE,46,8.0,11.0,62,0.00,,,0.00,meteohub,2013-03-03 15:12:00,
2013-03-03 10:17:00,24.8,13.6,30.02,North,359,5.0,11.0,62,0.00,,,0.00,meteohub,2013-03-03 15:17:00,
2013-03-03 10:22:00,25.5,14.4,30.02,NNE,23,5.0,11.0,62,0.00,,,0.00,meteohub,2013-03-03 15:22:00,
2013-03-03 10:27:00,26.1,14.5,30.02,NE,56,4.0,11.0,61,0.00,,,0.00,meteohub,2013-03-03 15:27:00,
2013-03-03 10:32:00,25.9,14.4,30.02,ENE,65,1.0,10.0,61,0.00,,,0.00,meteohub,2013-03-03 15:32:00,
2013-03-03 10:37:00,26.4,13.6,30.02,North,11,4.0,10.0,58,0.00,,,0.00,meteohub,2013-03-03 15:37:00,
2013-03-03 10:42:00,26.6,14.5,30.01,North,349,3.0,10.0,60,0.00,,,0.00,meteohub,2013-03-03 15:42:00,
2013-03-03 10:47:00,27.1,14.7,30.02,North,356,5.0,11.0,59,0.00,,,0.00,meteohub,2013-03-03 15:47:00,
2013-03-03 10:52:00,26.8,13.1,30.02,NE,50,0.0,11.0,56,0.00,,,0.00,meteohub,2013-03-03 15:52:00,
2013-03-03 10:57:00,26.6,13.8,30.01,ENE,77,3.0,11.0,58,0.00,,,0.00,meteohub,2013-03-03 15:57:00,
2013-03-03 11:02:00,27.1,14.7,30.01,ENE,67,6.0,11.0,59,0.00,,,0.00,meteohub,2013-03-03 16:02:00,
2013-03-03 11:07:00,27.3,14.9,30.02,NNE,25,10.0,11.0,59,0.00,,,0.00,meteohub,2013-03-03 16:07:00,
2013-03-03 11:12:00,27.7,14.4,30.02,NNE,16,4.0,11.0,57,0.00,,,0.00,meteohub,2013-03-03 16:12:00,
2013-03-03 11:17:00,27.3,13.6,30.01,NE,36,0.0,11.0,56,0.00,,,0.00,meteohub,2013-03-03 16:17:00,
2013-03-03 11:22:00,27.7,14.0,30.01,North,350,3.0,11.0,56,0.00,,,0.00,meteohub,2013-03-03 16:22:00,
2013-03-03 11:27:00,28.2,14.5,30.01,NNE,20,2.0,8.0,56,0.00,,,0.00,meteohub,2013-03-03 16:27:00,
2013-03-03 11:32:00,28.6,14.5,30.01,East,92,5.0,11.0,55,0.00,,,0.00,meteohub,2013-03-03 16:32:00,
2013-03-03 11:37:00,28.8,14.2,30.02,NNE,25,7.0,11.0,54,0.00,,,0.00,meteohub,2013-03-03 16:37:00,
2013-03-03 11:42:00,28.6,13.6,30.02,East,86,4.0,12.0,53,0.00,,,0.00,meteohub,2013-03-03 16:42:00,
2013-03-03 11:47:00,28.8,14.2,30.02,ENE,66,4.0,12.0,54,0.00,,,0.00,meteohub,2013-03-03 16:47:00,
2013-03-03 11:52:00,29.3,14.4,30.02,NE,51,3.0,12.0,53,0.00,,,0.00,meteohub,2013-03-03 16:52:00,
2013-03-03 11:57:00,29.7,14.2,30.02,ENE,63,4.0,8.0,52,0.00,,,0.00,meteohub,2013-03-03 16:57:00,
2013-03-03 12:02:00,29.7,14.2,30.01,NNE,20,3.0,8.0,52,0.00,,,0.00,meteohub,2013-03-03 17:02:00,
2013-03-03 12:07:00,30.0,14.5,30.01,ENE,58,8.0,8.0,52,0.00,,,0.00,meteohub,2013-03-03 17:07:00,
2013-03-03 12:12:00,30.6,14.5,30.01,West,264,3.0,8.0,51,0.00,,,0.00,meteohub,2013-03-03 17:12:00,
2013-03-03 12:17:00,30.4,13.5,30.01,North,349,2.0,8.0,49,0.00,,,0.00,meteohub,2013-03-03 17:17:00,
2013-03-03 12:22:00,30.6,14.5,30.01,NNE,30,1.0,11.0,51,0.00,,,0.00,meteohub,2013-03-03 17:22:00,
2013-03-03 12:27:00,31.5,14.5,30.01,WNW,293,5.0,11.0,49,0.00,,,0.00,meteohub,2013-03-03 17:27:00,
2013-03-03 12:32:00,31.5,14.0,30.01,NW,321,3.0,11.0,48,0.00,,,0.00,meteohub,2013-03-03 17:32:00,
2013-03-03 12:37:00,31.5,13.6,30.01,SSE,158,1.0,8.0,47,0.00,,,0.00,meteohub,2013-03-03 17:37:00,
2013-03-03 12:42:00,31.8,14.4,30.00,SSW,208,1.0,8.0,48,0.00,,,0.00,meteohub,2013-03-03 17:42:00,
2013-03-03 12:47:00,32.5,14.0,30.00,WSW,238,3.0,8.0,46,0.00,,,0.00,meteohub,2013-03-03 17:47:00,
2013-03-03 12:52:00,33.1,15.1,30.00,NNW,335,0.0,5.0,47,0.00,,,0.00,meteohub,2013-03-03 17:52:00,
2013-03-03 12:57:00,33.1,15.1,30.00,NNW,340,4.0,7.0,47,0.00,,,0.00,meteohub,2013-03-03 17:57:00,
2013-03-03 13:02:00,32.9,14.4,30.00,NNW,340,3.0,7.0,46,0.00,,,0.00,meteohub,2013-03-03 18:02:00,
2013-03-03 13:07:00,33.1,15.1,29.99,West,259,1.0,7.0,47,0.00,,,0.00,meteohub,2013-03-03 18:07:00,
2013-03-03 13:12:00,33.3,15.3,30.00,NNE,30,3.0,7.0,47,0.00,,,0.00,meteohub,2013-03-03 18:12:00,
2013-03-03 13:17:00,33.1,15.1,29.99,NW,315,4.0,8.0,47,0.00,,,0.00,meteohub,2013-03-03 18:17:00,
2013-03-03 13:22:00,32.5,14.5,29.99,NE,49,10.0,10.0,47,0.00,,,0.00,meteohub,2013-03-03 18:22:00,
2013-03-03 13:26:00,32.4,14.9,29.99,NNW,333,3.0,13.0,48,0.00,,,0.00,meteohub,2013-03-03 18:26:00,
2013-03-03 13:31:00,32.7,15.3,29.99,NE,53,1.0,13.0,48,0.00,,,0.00,meteohub,2013-03-03 18:31:00,
2013-03-03 13:37:00,32.5,15.1,29.99,NNW,338,3.0,13.0,48,0.00,,,0.00,meteohub,2013-03-03 18:37:00,
2013-03-03 13:42:00,32.7,15.6,29.99,North,355,4.0,14.0,49,0.00,,,0.00,meteohub,2013-03-03 18:42:00,
2013-03-03 13:47:00,32.7,15.6,29.99,NNW,329,2.0,14.0,49,0.00,,,0.00,meteohub,2013-03-03 18:47:00,
2013-03-03 13:52:00,32.9,15.4,29.99,NNE,22,4.0,14.0,48,0.00,,,0.00,meteohub,2013-03-03 18:52:00,
2013-03-03 13:57:00,32.9,15.4,29.98,ENE,58,5.0,13.0,48,0.00,,,0.00,meteohub,2013-03-03 18:57:00,
2013-03-03 14:02:00,33.4,15.8,29.98,NE,44,0.0,13.0,48,0.00,,,0.00,meteohub,2013-03-03 19:02:00,
2013-03-03 14:07:00,33.6,15.6,29.98,NNW,329,0.0,13.0,47,0.00,,,0.00,meteohub,2013-03-03 19:07:00,
2013-03-03 14:12:00,33.8,16.2,29.97,NNE,23,0.0,9.0,48,0.00,,,0.00,meteohub,2013-03-03 19:12:00,
2013-03-03 14:17:00,34.3,16.2,29.97,WNW,303,0.0,9.0,47,0.00,,,0.00,meteohub,2013-03-03 19:17:00,
2013-03-03 14:22:00,34.2,16.0,29.97,NE,56,7.0,9.0,47,0.00,,,0.00,meteohub,2013-03-03 19:22:00,
2013-03-03 14:27:00,33.8,16.2,29.97,ENE,60,9.0,10.0,48,0.00,,,0.00,meteohub,2013-03-03 19:27:00,
2013-03-03 14:32:00,34.0,16.3,29.97,NNE,16,2.0,10.0,48,0.00,,,0.00,meteohub,2013-03-03 19:32:00,
2013-03-03 14:37:00,34.3,16.2,29.97,SSE,162,6.0,13.0,47,0.00,,,0.00,meteohub,2013-03-03 19:37:00,
2013-03-03 14:42:00,34.5,16.9,29.98,East,82,3.0,13.0,48,0.00,,,0.00,meteohub,2013-03-03 19:42:00,
2013-03-03 14:47:00,34.5,16.9,29.97,NNE,13,8.0,13.0,48,0.00,,,0.00,meteohub,2013-03-03 19:47:00,
2013-03-03 14:52:00,34.3,16.7,29.97,East,88,5.0,12.0,48,0.00,,,0.00,meteohub,2013-03-03 19:52:00,
2013-03-03 14:57:00,34.5,17.2,29.97,North,9,5.0,12.0,49,0.00,,,0.00,meteohub,2013-03-03 19:57:00,
2013-03-03 15:02:00,34.7,17.4,29.98,NNE,20,6.0,12.0,49,0.00,,,0.00,meteohub,2013-03-03 20:02:00,
2013-03-03 15:07:00,34.5,16.9,29.98,NNW,342,2.0,10.0,48,0.00,,,0.00,meteohub,2013-03-03 20:07:00,
2013-03-03 15:12:00,34.2,17.1,29.98,SE,141,2.0,10.0,49,0.00,,,0.00,meteohub,2013-03-03 20:12:00,
2013-03-03 15:17:00,34.7,17.4,29.98,NE,47,10.0,10.0,49,0.00,,,0.00,meteohub,2013-03-03 20:17:00,
2013-03-03 15:22:00,34.9,18.1,29.98,NNW,332,0.0,11.0,50,0.00,,,0.00,meteohub,2013-03-03 20:22:00,
2013-03-03 15:27:00,35.2,18.0,29.98,ENE,75,7.0,11.0,49,0.00,,,0.00,meteohub,2013-03-03 20:27:00,
2013-03-03 15:32:00,35.1,17.8,29.98,NE,42,4.0,11.0,49,0.00,,,0.00,meteohub,2013-03-03 20:32:00,
2013-03-03 15:37:00,34.5,17.8,29.98,NE,40,3.0,11.0,50,0.00,,,0.00,meteohub,2013-03-03 20:37:00,
2013-03-03 15:41:00,34.5,18.3,29.99,NNE,23,3.0,11.0,51,0.00,,,0.00,meteohub,2013-03-03 20:41:00,
2013-03-03 15:47:00,34.2,18.0,29.98,East,97,5.0,11.0,51,0.00,,,0.00,meteohub,2013-03-03 20:47:00,
2013-03-03 15:52:00,34.2,18.9,29.98,ENE,71,1.0,12.0,53,0.00,,,0.00,meteohub,2013-03-03 20:52:00,
2013-03-03 15:57:00,34.0,18.1,29.98,East,95,4.0,12.0,52,0.00,,,0.00,meteohub,2013-03-03 20:57:00,
2013-03-03 16:02:00,33.6,18.3,29.99,East,82,5.0,11.0,53,0.00,,,0.00,meteohub,2013-03-03 21:02:00,
2013-03-03 16:07:00,33.4,18.1,29.99,NW,319,2.0,11.0,53,0.00,,,0.00,meteohub,2013-03-03 21:07:00,
2013-03-03 16:12:00,33.6,18.3,29.99,NE,37,6.0,11.0,53,0.00,,,0.00,meteohub,2013-03-03 21:12:00,
2013-03-03 16:17:00,33.6,18.7,29.99,NE,55,4.0,9.0,54,0.00,,,0.00,meteohub,2013-03-03 21:17:00,
2013-03-03 16:22:00,33.4,18.1,29.99,NE,36,6.0,10.0,53,0.00,,,0.00,meteohub,2013-03-03 21:22:00,
2013-03-03 16:27:00,33.1,17.8,29.99,North,0,3.0,10.0,53,0.00,,,0.00,meteohub,2013-03-03 21:27:00,
2013-03-03 16:32:00,33.1,18.3,29.99,NE,53,5.0,10.0,54,0.00,,,0.00,meteohub,2013-03-03 21:32:00,
2013-03-03 16:37:00,32.7,18.0,29.99,ENE,75,5.0,10.0,54,0.00,,,0.00,meteohub,2013-03-03 21:37:00,
2013-03-03 16:42:00,32.4,17.6,29.99,NE,49,4.0,9.0,54,0.00,,,0.00,meteohub,2013-03-03 21:42:00,
2013-03-03 16:46:00,32.4,18.0,29.99,NNE,32,7.0,12.0,55,0.00,,,0.00,meteohub,2013-03-03 21:46:00,
2013-03-03 16:51:00,32.0,17.2,29.99,NE,51,6.0,12.0,54,0.00,,,0.00,meteohub,2013-03-03 21:51:00,
2013-03-03 16:57:00,31.6,17.2,29.99,NNE,13,3.0,11.0,55,0.00,,,0.00,meteohub,2013-03-03 21:57:00,
2013-03-03 17:02:00,31.6,17.2,30.00,NE,51,4.0,11.0,55,0.00,,,0.00,meteohub,2013-03-03 22:02:00,
2013-03-03 17:07:00,31.6,17.2,30.00,ENE,62,7.0,11.0,55,0.00,,,0.00,meteohub,2013-03-03 22:07:00,
2013-03-03 17:12:00,31.3,17.1,30.00,NNE,18,2.0,11.0,55,0.00,,,0.00,meteohub,2013-03-03 22:12:00,
2013-03-03 17:17:00,30.9,16.7,30.00,NE,38,6.0,12.0,55,0.00,,,0.00,meteohub,2013-03-03 22:17:00,
2013-03-03 17:22:00,30.7,16.9,30.00,NNE,27,8.0,12.0,56,0.00,,,0.00,meteohub,2013-03-03 22:22:00,
2013-03-03 17:27:00,30.6,16.7,30.01,NNE,27,5.0,12.0,56,0.00,,,0.00,meteohub,2013-03-03 22:27:00,
2013-03-03 17:32:00,30.4,16.5,30.01,North,8,4.0,12.0,56,0.00,,,0.00,meteohub,2013-03-03 22:32:00,
2013-03-03 17:37:00,30.0,16.7,30.01,ENE,73,3.0,12.0,57,0.00,,,0.00,meteohub,2013-03-03 22:37:00,
2013-03-03 17:42:00,29.8,16.9,30.01,NW,311,0.0,10.0,58,0.00,,,0.00,meteohub,2013-03-03 22:42:00,
2013-03-03 17:47:00,29.7,16.7,30.01,NW,314,0.0,10.0,58,0.00,,,0.00,meteohub,2013-03-03 22:47:00,
2013-03-03 17:52:00,29.5,16.9,30.02,ENE,60,4.0,7.0,59,0.00,,,0.00,meteohub,2013-03-03 22:52:00,
2013-03-03 17:57:00,29.1,16.5,30.02,NE,49,6.0,10.0,59,0.00,,,0.00,meteohub,2013-03-03 22:57:00,
2013-03-03 18:02:00,28.8,16.2,30.03,NNE,32,7.0,13.0,59,0.00,,,0.00,meteohub,2013-03-03 23:02:00,
2013-03-03 18:07:00,28.2,16.2,30.03,ENE,64,6.0,13.0,60,0.00,,,0.00,meteohub,2013-03-03 23:07:00,
2013-03-03 18:12:00,27.9,16.2,30.03,NE,44,3.0,14.0,61,0.00,,,0.00,meteohub,2013-03-03 23:12:00,
2013-03-03 18:17:00,27.7,16.0,30.03,NE,46,8.0,14.0,61,0.00,,,0.00,meteohub,2013-03-03 23:17:00,
2013-03-03 18:22:00,27.3,16.0,30.03,North,355,6.0,14.0,62,0.00,,,0.00,meteohub,2013-03-03 23:22:00,
2013-03-03 18:27:00,27.0,15.6,30.04,NNE,15,9.0,13.0,62,0.00,,,0.00,meteohub,2013-03-03 23:27:00,
2013-03-03 18:32:00,26.8,15.8,30.03,NE,41,5.0,13.0,63,0.00,,,0.00,meteohub,2013-03-03 23:32:00,
2013-03-03 18:37:00,26.8,15.8,30.03,NNE,22,2.0,12.0,63,0.00,,,0.00,meteohub,2013-03-03 23:37:00,
2013-03-03 18:42:00,26.4,16.0,30.03,ENE,65,5.0,12.0,64,0.00,,,0.00,meteohub,2013-03-03 23:42:00,
2013-03-03 18:47:00,26.2,15.8,30.04,NE,38,3.0,8.0,64,0.00,,,0.00,meteohub,2013-03-03 23:47:00,
2013-03-03 18:52:00,26.1,15.6,30.04,ENE,70,1.0,7.0,64,0.00,,,0.00,meteohub,2013-03-03 23:52:00,
2013-03-03 18:57:00,25.9,15.4,30.04,ENE,61,4.0,11.0,64,0.00,,,0.00,meteohub,2013-03-03 23:57:00,
2013-03-03 19:02:00,25.9,15.4,30.04,NE,49,2.0,11.0,64,0.00,,,0.00,meteohub,2013-03-04 00:02:00,
2013-03-03 19:07:00,25.7,15.3,30.04,NNE,15,3.0,11.0,64,0.00,,,0.00,meteohub,2013-03-04 00:07:00,
2013-03-03 19:12:00,25.5,15.1,30.04,NE,44,3.0,8.0,64,0.00,,,0.00,meteohub,2013-03-04 00:12:00,
2013-03-03 19:17:00,25.3,14.9,30.05,ENE,61,2.0,7.0,64,0.00,,,0.00,meteohub,2013-03-04 00:17:00,
2013-03-03 19:22:00,25.3,15.3,30.05,ENE,58,3.0,7.0,65,0.00,,,0.00,meteohub,2013-03-04 00:22:00,
2013-03-03 19:27:00,25.2,15.1,30.05,NNE,25,2.0,6.0,65,0.00,,,0.00,meteohub,2013-03-04 00:27:00,
2013-03-03 19:32:00,25.0,14.9,30.05,ENE,65,2.0,6.0,65,0.00,,,0.00,meteohub,2013-03-04 00:32:00,
2013-03-03 19:37:00,24.8,14.7,30.06,NNE,27,4.0,6.0,65,0.00,,,0.00,meteohub,2013-03-04 00:37:00,
2013-03-03 19:42:00,24.6,14.5,30.06,SE,131,0.0,7.0,65,0.00,,,0.00,meteohub,2013-03-04 00:42:00,
2013-03-03 19:47:00,24.4,14.7,30.06,ENE,72,3.0,7.0,66,0.00,,,0.00,meteohub,2013-03-04 00:47:00,
2013-03-03 19:52:00,24.3,14.5,30.05,ENE,65,3.0,7.0,66,0.00,,,0.00,meteohub,2013-03-04 00:52:00,
2013-03-03 19:57:00,24.3,14.5,30.05,ENE,60,1.0,7.0,66,0.00,,,0.00,meteohub,2013-03-04 00:57:00,
2013-03-03 20:02:00,24.1,14.4,30.06,NNE,23,5.0,6.0,66,0.00,,,0.00,meteohub,2013-03-04 01:02:00,
2013-03-03 20:07:00,23.9,14.5,30.06,NNE,13,0.0,7.0,67,0.00,,,0.00,meteohub,2013-03-04 01:07:00,
2013-03-03 20:12:00,23.7,14.4,30.06,NNE,25,2.0,7.0,67,0.00,,,0.00,meteohub,2013-03-04 01:12:00,
2013-03-03 20:17:00,23.7,14.4,30.06,NE,36,1.0,7.0,67,0.00,,,0.00,meteohub,2013-03-04 01:17:00,
2013-03-03 20:22:00,23.7,14.0,30.06,ENE,58,4.0,5.0,66,0.00,,,0.00,meteohub,2013-03-04 01:22:00,
2013-03-03 20:27:00,23.5,13.8,30.06,NE,55,1.0,6.0,66,0.00,,,0.00,meteohub,2013-03-04 01:27:00,
2013-03-03 20:32:00,23.4,14.0,30.06,NNE,33,1.0,6.0,67,0.00,,,0.00,meteohub,2013-03-04 01:32:00,
2013-03-03 20:37:00,23.4,14.0,30.06,ENE,65,0.0,6.0,67,0.00,,,0.00,meteohub,2013-03-04 01:37:00,
2013-03-03 20:42:00,23.4,14.0,30.06,East,88,3.0,3.0,67,0.00,,,0.00,meteohub,2013-03-04 01:42:00,
2013-03-03 20:47:00,23.2,13.8,30.06,East,80,1.0,5.0,67,0.00,,,0.00,meteohub,2013-03-04 01:47:00,
2013-03-03 20:52:00,23.2,13.8,30.06,NE,36,3.0,5.0,67,0.00,,,0.00,meteohub,2013-03-04 01:52:00,
2013-03-03 20:56:00,23.2,13.8,30.06,NE,44,0.0,5.0,67,0.00,,,0.00,meteohub,2013-03-04 01:56:00,
2013-03-03 21:02:00,22.8,13.5,30.07,NNE,18,1.0,5.0,67,0.00,,,0.00,meteohub,2013-03-04 02:02:00,
2013-03-03 21:07:00,22.6,13.6,30.07,NNE,28,2.0,7.0,68,0.00,,,0.00,meteohub,2013-03-04 02:07:00,
2013-03-03 21:12:00,22.6,13.6,30.07,ENE,77,1.0,7.0,68,0.00,,,0.00,meteohub,2013-03-04 02:12:00,
2013-03-03 21:17:00,22.5,13.5,30.07,North,4,1.0,7.0,68,0.00,,,0.00,meteohub,2013-03-04 02:17:00,
2013-03-03 21:22:00,22.6,13.6,30.07,NNE,14,2.0,5.0,68,0.00,,,0.00,meteohub,2013-03-04 02:22:00,
2013-03-03 21:27:00,22.6,13.6,30.07,NE,38,5.0,9.0,68,0.00,,,0.00,meteohub,2013-03-04 02:27:00,
2013-03-03 21:32:00,22.6,13.3,30.07,ENE,61,8.0,10.0,67,0.00,,,0.00,meteohub,2013-03-04 02:32:00,
2013-03-03 21:37:00,22.8,13.5,30.07,NNW,336,3.0,12.0,67,0.00,,,0.00,meteohub,2013-03-04 02:37:00,
2013-03-03 21:42:00,22.8,13.5,30.07,NE,49,5.0,12.0,67,0.00,,,0.00,meteohub,2013-03-04 02:42:00,
2013-03-03 21:47:00,22.6,13.3,30.07,NNE,25,4.0,12.0,67,0.00,,,0.00,meteohub,2013-03-04 02:47:00,
2013-03-03 21:52:00,22.6,13.3,30.06,North,8,6.0,12.0,67,0.00,,,0.00,meteohub,2013-03-04 02:52:00,
2013-03-03 21:57:00,22.6,13.3,30.06,NNE,28,7.0,8.0,67,0.00,,,0.00,meteohub,2013-03-04 02:57:00,
2013-03-03 22:02:00,22.6,13.3,30.06,NNE,26,3.0,9.0,67,0.00,,,0.00,meteohub,2013-03-04 03:02:00,
2013-03-03 22:07:00,22.6,13.3,30.07,NE,56,5.0,9.0,67,0.00,,,0.00,meteohub,2013-03-04 03:07:00,
2013-03-03 22:12:00,22.6,13.3,30.07,NE,40,5.0,11.0,67,0.00,,,0.00,meteohub,2013-03-04 03:12:00,
2013-03-03 22:17:00,22.6,13.3,30.07,NNW,336,1.0,11.0,67,0.00,,,0.00,meteohub,2013-03-04 03:17:00,
2013-03-03 22:22:00,22.6,13.3,30.07,NNE,30,4.0,11.0,67,0.00,,,0.00,meteohub,2013-03-04 03:22:00,
2013-03-03 22:27:00,22.5,13.1,30.07,NNW,330,1.0,9.0,67,0.00,,,0.00,meteohub,2013-03-04 03:27:00,
2013-03-03 22:32:00,22.5,13.1,30.07,NNE,16,0.0,9.0,67,0.00,,,0.00,meteohub,2013-03-04 03:32:00,
2013-03-03 22:37:00,22.5,13.1,30.07,NNE,13,0.0,9.0,67,0.00,,,0.00,meteohub,2013-03-04 03:37:00,
2013-03-03 22:42:00,22.3,12.9,30.07,North,349,6.0,8.0,67,0.00,,,0.00,meteohub,2013-03-04 03:42:00,
2013-03-03 22:47:00,22.5,13.1,30.07,NE,56,1.0,9.0,67,0.00,,,0.00,meteohub,2013-03-04 03:47:00,
2013-03-03 22:52:00,22.3,12.7,30.07,NNE,19,7.0,9.0,66,0.00,,,0.00,meteohub,2013-03-04 03:52:00,
2013-03-03 22:57:00,22.5,12.7,30.07,NNE,20,2.0,12.0,66,0.00,,,0.00,meteohub,2013-03-04 03:57:00,
2013-03-03 23:02:00,22.5,12.6,30.06,NE,43,1.0,12.0,65,0.00,,,0.00,meteohub,2013-03-04 04:02:00,
2013-03-03 23:07:00,22.3,12.4,30.06,NNE,12,2.0,12.0,65,0.00,,,0.00,meteohub,2013-03-04 04:07:00,
2013-03-03 23:12:00,22.3,12.4,30.07,NE,36,3.0,10.0,65,0.00,,,0.00,meteohub,2013-03-04 04:12:00,
2013-03-03 23:17:00,22.3,12.4,30.07,North,6,1.0,9.0,65,0.00,,,0.00,meteohub,2013-03-04 04:17:00,
2013-03-03 23:22:00,22.3,12.4,30.07,NNE,13,2.0,7.0,65,0.00,,,0.00,meteohub,2013-03-04 04:22:00,
2013-03-03 23:27:00,22.1,12.2,30.07,NNE,19,2.0,7.0,65,0.00,,,0.00,meteohub,2013-03-04 04:27:00,
2013-03-03 23:32:00,21.9,12.4,30.07,NNE,21,0.0,6.0,66,0.00,,,0.00,meteohub,2013-03-04 04:32:00,
2013-03-03 23:37:00,21.7,12.2,30.07,NNE,15,1.0,6.0,66,0.00,,,0.00,meteohub,2013-03-04 04:37:00,
2013-03-03 23:42:00,21.7,11.8,30.07,WSW,255,0.0,5.0,65,0.00,,,0.00,meteohub,2013-03-04 04:42:00,
2013-03-03 23:47:00,21.4,11.8,30.07,SW,231,0.0,5.0,66,0.00,,,0.00,meteohub,2013-03-04 04:47:00,
2013-03-03 23:52:00,21.0,11.5,30.07,SW,231,0.0,5.0,66,0.00,,,0.00,meteohub,2013-03-04 04:52:00,
2013-03-03 23:57:00,21.0,12.2,30.07,NE,36,0.0,1.0,68,0.00,,,0.00,meteohub,2013-03-04 04:57:00,